Weather in Corvara in Badia

Italy     46°33′04″N   11°52′26″E
temp.,
°C
wind,
m/s
gust,
m/s
humid.,
%
clouds,
%
prec.,
mm/h
press.,
hPa
HPBL,
m
25 february, thu
thu2501:00−2se12510 0.0 103522
04:00−2se11530 0.0 103421
07:00−2ese12470 0.0 103421
10:00+4se11880 0.0 103222
13:00+6s01950 0.0 1031165
16:00+5sse111009 0.0 103027
19:000se118316 0.0 103122
22:00−1e11770 0.0 103322
26 february, fri
fri2601:00−2e11630 0.0 103322
04:00−2ene11470 0.0 103222
07:00−2ene11400 0.0 103222
10:00+4nne11700 0.0 103038
13:00+6nne11690 0.0 1029200
16:00+5nne11870 0.0 102724
19:00−1e12620 0.0 102922
22:00−2ene11550 0.0 103022
27 february, sat
sat2701:00−2ne22630 0.0 103023
04:00−3ne22812 0.0 102922
07:00−3ne12831 0.0 102921
10:00+2nne11780 0.0 1029178
13:00+5nne11740 0.0 1029630
16:00+3n128629 0.0 1028403
19:00−1e119440 0.1 103021
22:00−1se119346 0.0 103221
28 february, sun
sun2801:00−1wsw119467 0.0 103221
04:00−1w119398 0.0 103123
07:00−3sw019476 0.1 103121
10:00+1w11828 0.0 1031427
13:00+3w117620 0.0 1030602
16:00+2wnw118368 0.0 1028332
19:00−1ne009382 0.0 103021
22:00−3ese119225 0.0 103121
1 march, mon
mon101:00−3se019213 0.0 103121
04:00−4ese01896 0.0 103121
07:00−4e11803 0.0 103121
10:00+2s01570 0.0 1030241
13:00+5wnw11530 0.0 1029652
16:00+4nnw11680 0.0 1029457
19:00−2sse11910 0.0 103121
22:00−2s11952 0.0 103421